QPF
0.04 0.03 0.04 0.04 0.04 0.03 0.03 0.03 0.03 0.02 0.01 0.01 0.00 0.01 0.01 0.01 0.02 0.01 0.01 0.01 0.01 0.01 0.01 0.01 0.01 0.02 0.01 0.01 0.01 0.01 0.01 0.01 0.02 0.02 0.02 0.03 0.03 0.04
0.04 0.03 0.02 0.02 0.03 0.04 0.04 0.04 0.03 0.03 0.01 0.01 0.01 0.01 0.01 0.01 0.01 0.02 0.02 0.02 0.02 0.01 0.01 0.01 0.01 0.01 0.01 0.01 0.01 0.01 0.01 0.01 0.01 0.02 0.02 0.01 0.02 0.03
0.03 0.02 0.02 0.02 0.02 0.04 0.04 0.04 0.04 0.03 0.02 0.01 0.01 0.01 0.01 0.01 0.02 0.02 0.02 0.01 0.01 0.02 0.02 0.02 0.01 0.01 0.01 0.01 0.01 0.01 0.01 0.01 0.02 0.02 0.02 0.01 0.01 0.01
0.02 0.02 0.02 0.02 0.01 0.02 0.03 0.04 0.04 0.05 0.03 0.02 0.01 0.01 0.01 0.02 0.03 0.03 0.02 0.02 0.01 0.02 0.02 0.02 0.02 0.02 0.02 0.01 0.01 0.01 0.01 0.01 0.01 0.01 0.01 0.01 0.01 0.01
0.01 0.01 0.01 0.02 0.02 0.03 0.03 0.04 0.04 0.05 0.04 0.02 0.01 0.02 0.02 0.02 0.02 0.02 0.02 0.02 0.01 0.01 0.01 0.02 0.02 0.02 0.02 0.02 0.01 0.01 0.01 0.01 0.00 0.00 0.01 0.00 0.00 0.00
0.02 0.02 0.01 0.02 0.03 0.03 0.03 0.04 0.04 0.04 0.05 0.04 0.02 0.02 0.02 0.02 0.01 0.02 0.02 0.02 0.02 0.02 0.02 0.02 0.02 0.02 0.02 0.02 0.01 0.01 0.01 0.01 0.01 0.01 0.01 0.01 0.00 0.00
0.02 0.02 0.01 0.03 0.03 0.03 0.03 0.03 0.04 0.03 0.03 0.03 0.03 0.03 0.02 0.03 0.02 0.02 0.02 0.02 0.02 0.02 0.02 0.02 0.02 0.02 0.02 0.02 0.02 0.02 0.02 0.02 0.02 0.02 0.02 0.01 0.01 0.01
0.02 0.03 0.03 0.03 0.03 0.04 0.04 0.05 0.04 0.03 0.03 0.03 0.03 0.02 0.03 0.04 0.04 0.04 0.03 0.02 0.02 0.02 0.02 0.02 0.02 0.01 0.01 0.02 0.03 0.03 0.03 0.03 0.03 0.03 0.03 0.02 0.01 0.01
0.04 0.04 0.04 0.04 0.06 0.05 0.06 0.06 0.04 0.03 0.03 0.03 0.02 0.01 0.02 0.03 0.04 0.04 0.04 0.03 0.03 0.04 0.03 0.01 0.01 0.01 0.01 0.01 0.02 0.03 0.03 0.03 0.04 0.03 0.02 0.01 0.01 0.00
0.08 0.06 0.06 0.05 0.06 0.06 0.06 0.04 0.02 0.02 0.03 0.03 0.02 0.02 0.03 0.04 0.05 0.05 0.06 0.05 0.05 0.04 0.03 0.02 0.01 0.01 0.01 0.01 0.01 0.02 0.02 0.03 0.03 0.02 0.01 0.01 0.01 0.01
0.09 0.07 0.06 0.05 0.06 0.07 0.06 0.04 0.03 0.02 0.03 0.03 0.03 0.04 0.04 0.06 0.06 0.06 0.06 0.07 0.06 0.04 0.03 0.03 0.02 0.01 0.01 0.01 0.02 0.02 0.02 0.02 0.02 0.01 0.01 0.01 0.01 0.02
0.06 0.06 0.06 0.05 0.04 0.05 0.04 0.03 0.02 0.02 0.03 0.03 0.03 0.04 0.05 0.06 0.07 0.06 0.06 0.06 0.07 0.05 0.04 0.03 0.03 0.03 0.02 0.02 0.02 0.03 0.03 0.03 0.02 0.02 0.02 0.02 0.02 0.02
0.05 0.04 0.03 0.03 0.04 0.03 0.03 0.03 0.03 0.04 0.04 0.04 0.04 0.03 0.04 0.04 0.05 0.06 0.07 0.06 0.06 0.05 0.05 0.05 0.04 0.04 0.03 0.03 0.03 0.02 0.03 0.03 0.02 0.01 0.02 0.02 0.02 0.03
0.05 0.04 0.03 0.03 0.03 0.03 0.03 0.03 0.04 0.05 0.04 0.03 0.03 0.03 0.03 0.03 0.04 0.05 0.07 0.09 0.07 0.06 0.06 0.06 0.05 0.04 0.04 0.05 0.04 0.04 0.03 0.03 0.03 0.02 0.01 0.02 0.01 0.01
0.03 0.03 0.03 0.03 0.03 0.04 0.03 0.03 0.03 0.03 0.03 0.03 0.03 0.02 0.03 0.04 0.05 0.05 0.06 0.07 0.08 0.07 0.06 0.06 0.06 0.07 0.05 0.04 0.05 0.04 0.03 0.03 0.02 0.02 0.02 0.01 0.01 0.01
0.05 0.04 0.04 0.04 0.04 0.05 0.04 0.04 0.03 0.03 0.03 0.02 0.02 0.03 0.03 0.05 0.06 0.07 0.08 0.08 0.08 0.08 0.07 0.07 0.07 0.08 0.06 0.05 0.05 0.05 0.04 0.04 0.04 0.04 0.04 0.03 0.02 0.01
0.11 0.10 0.08 0.07 0.07 0.06 0.06 0.06 0.06 0.05 0.04 0.03 0.02 0.02 0.02 0.02 0.03 0.04 0.06 0.07 0.06 0.06 0.07 0.08 0.10 0.11 0.10 0.08 0.06 0.05 0.04 0.04 0.05 0.06 0.05 0.04 0.03 0.02
0.10 0.10 0.09 0.09 0.09 0.08 0.08 0.08 0.06 0.05 0.04 0.03 0.03 0.02 0.02 0.02 0.02 0.03 0.03 0.04 0.04 0.05 0.06 0.06 0.07 0.09 0.09 0.08 0.07 0.06 0.05 0.06 0.05 0.05 0.04 0.03 0.03 0.03
0.04 0.05 0.05 0.05 0.05 0.07 0.07 0.05 0.04 0.04 0.04 0.03 0.03 0.03 0.03 0.03 0.03 0.03 0.03 0.04 0.04 0.04 0.05 0.06 0.07 0.08 0.08 0.06 0.07 0.07 0.07 0.07 0.07 0.06 0.05 0.03 0.03 0.04
0.03 0.03 0.04 0.07 0.08 0.09 0.08 0.07 0.05 0.06 0.06 0.06 0.06 0.06 0.07 0.06 0.06 0.05 0.04 0.04 0.04 0.04 0.04 0.04 0.05 0.06 0.07 0.06 0.06 0.06 0.07 0.06 0.06 0.07 0.07 0.06 0.05 0.06
0.02 0.02 0.02 0.04 0.05 0.06 0.07 0.08 0.09 0.09 0.09 0.07 0.06 0.07 0.08 0.08 0.08 0.07 0.05 0.04 0.04 0.04 0.04 0.03 0.04 0.05 0.06 0.05 0.04 0.05 0.05 0.06 0.06 0.06 0.06 0.07 0.07 0.06
0.02 0.01 0.02 0.02 0.02 0.03 0.03 0.04 0.05 0.06 0.06 0.07 0.06 0.06 0.05 0.05 0.05 0.04 0.03 0.03 0.03 0.04 0.04 0.04 0.04 0.05 0.04 0.03 0.03 0.03 0.03 0.04 0.05 0.06 0.05 0.05 0.05 0.05
0.03 0.02 0.02 0.02 0.02 0.03 0.04 0.03 0.03 0.04 0.04 0.04 0.03 0.03 0.03 0.03 0.03 0.03 0.03 0.03 0.03 0.03 0.04 0.04 0.03 0.03 0.04 0.03 0.03 0.03 0.03 0.03 0.03 0.03 0.04 0.04 0.04 0.04
MSLP
1011.62 1012.10 1012.61 1013.11 1013.56 1013.92 1014.16 1014.27 1014.25 1014.10 1013.86 1013.55 1013.21 1012.86 1012.52 1012.23 1012.00 1011.84 1011.76 1011.76 1011.85 1012.02 1012.26 1012.56 1012.88 1013.22 1013.55 1013.85 1014.10 1014.30 1014.44 1014.55 1014.62 1014.66 1014.69 1014.71 1014.73 1014.75
1010.90 1011.36 1011.85 1012.34 1012.80 1013.18 1013.47 1013.64 1013.68 1013.61 1013.44 1013.19 1012.88 1012.55 1012.22 1011.91 1011.64 1011.43 1011.30 1011.25 1011.29 1011.42 1011.63 1011.90 1012.21 1012.53 1012.86 1013.15 1013.41 1013.62 1013.79 1013.91 1014.01 1014.09 1014.15 1014.21 1014.26 1014.30
1010.18 1010.61 1011.07 1011.54 1011.99 1012.38 1012.70 1012.92 1013.04 1013.04 1012.95 1012.77 1012.53 1012.25 1011.95 1011.65 1011.38 1011.15 1010.99 1010.90 1010.90 1010.98 1011.14 1011.36 1011.63 1011.92 1012.21 1012.48 1012.73 1012.93 1013.10 1013.25 1013.38 1013.49 1013.60 1013.70 1013.78 1013.86
1009.40 1009.81 1010.24 1010.68 1011.12 1011.52 1011.87 1012.13 1012.31 1012.39 1012.38 1012.29 1012.13 1011.92 1011.68 1011.43 1011.18 1010.97 1010.81 1010.71 1010.68 1010.73 1010.84 1011.01 1011.22 1011.46 1011.70 1011.93 1012.13 1012.32 1012.48 1012.64 1012.79 1012.94 1013.09 1013.23 1013.37 1013.48
1008.55 1008.93 1009.33 1009.76 1010.18 1010.58 1010.95 1011.25 1011.48 1011.64 1011.71 1011.71 1011.64 1011.53 1011.37 1011.19 1011.01 1010.85 1010.72 1010.64 1010.61 1010.65 1010.73 1010.86 1011.02 1011.19 1011.37 1011.54 1011.70 1011.85 1012.00 1012.15 1012.32 1012.50 1012.69 1012.88 1013.06 1013.21
1007.59 1007.94 1008.32 1008.73 1009.14 1009.55 1009.93 1010.27 1010.55 1010.76 1010.91 1011.00 1011.03 1011.01 1010.95 1010.87 1010.79 1010.71 1010.65 1010.62 1010.63 1010.68 1010.76 1010.86 1010.98 1011.10 1011.22 1011.34 1011.45 1011.56 1011.69 1011.83 1012.00 1012.21 1012.43 1012.66 1012.88 1013.06
1006.50 1006.83 1007.20 1007.59 1008.01 1008.42 1008.82 1009.18 1009.50 1009.77 1009.98 1010.15 1010.26 1010.34 1010.38 1010.41 1010.43 1010.46 1010.49 1010.55 1010.63 1010.72 1010.83 1010.94 1011.05 1011.14 1011.23 1011.30 1011.37 1011.44 1011.54 1011.68 1011.85 1012.07 1012.31 1012.57 1012.81 1013.01
1005.30 1005.62 1005.97 1006.36 1006.78 1007.20 1007.62 1008.00 1008.36 1008.67 1008.93 1009.16 1009.34 1009.50 1009.64 1009.77 1009.90 1010.04 1010.18 1010.34 1010.51 1010.68 1010.85 1010.99 1011.12 1011.22 1011.29 1011.35 1011.39 1011.45 1011.54 1011.66 1011.83 1012.04 1012.29 1012.56 1012.81 1013.02
1004.06 1004.35 1004.69 1005.08 1005.50 1005.94 1006.38 1006.79 1007.17 1007.51 1007.81 1008.08 1008.31 1008.53 1008.74 1008.96 1009.18 1009.42 1009.68 1009.94 1010.21 1010.47 1010.72 1010.93 1011.11 1011.25 1011.34 1011.41 1011.46 1011.52 1011.60 1011.71 1011.88 1012.09 1012.33 1012.59 1012.83 1013.03
1002.86 1003.10 1003.43 1003.81 1004.24 1004.70 1005.16 1005.59 1006.00 1006.36 1006.69 1006.98 1007.24 1007.50 1007.76 1008.03 1008.32 1008.64 1008.98 1009.34 1009.71 1010.07 1010.40 1010.70 1010.95 1011.15 1011.30 1011.41 1011.50 1011.58 1011.67 1011.78 1011.94 1012.14 1012.37 1012.61 1012.83 1013.01
1001.77 1001.97 1002.26 1002.64 1003.08 1003.55 1004.03 1004.49 1004.92 1005.30 1005.64 1005.95 1006.22 1006.50 1006.78 1007.08 1007.41 1007.78 1008.18 1008.61 1009.06 1009.50 1009.92 1010.31 1010.65 1010.93 1011.15 1011.33 1011.47 1011.58 1011.70 1011.83 1011.99 1012.17 1012.37 1012.58 1012.78 1012.93
1000.86 1001.00 1001.27 1001.63 1002.07 1002.56 1003.06 1003.54 1003.99 1004.39 1004.74 1005.06 1005.34 1005.62 1005.90 1006.21 1006.56 1006.95 1007.38 1007.86 1008.35 1008.86 1009.35 1009.82 1010.24 1010.60 1010.91 1011.16 1011.36 1011.53 1011.68 1011.83 1011.99 1012.16 1012.33 1012.51 1012.66 1012.78
1000.17 1000.26 1000.48 1000.83 1001.26 1001.76 1002.27 1002.78 1003.25 1003.67 1004.04 1004.37 1004.66 1004.94 1005.22 1005.53 1005.87 1006.26 1006.70 1007.18 1007.71 1008.25 1008.79 1009.31 1009.80 1010.24 1010.62 1010.95 1011.22 1011.44 1011.63 1011.80 1011.95 1012.11 1012.25 1012.39 1012.51 1012.59
999.72 999.75 999.94 1000.26 1000.68 1001.17 1001.70 1002.22 1002.71 1003.16 1003.55 1003.90 1004.20 1004.49 1004.78 1005.08 1005.41 1005.79 1006.22 1006.70 1007.22 1007.78 1008.34 1008.90 1009.43 1009.92 1010.36 1010.74 1011.07 1011.34 1011.56 1011.74 1011.90 1012.03 1012.15 1012.26 1012.34 1012.39
999.52 999.50 999.64 999.92 1000.32 1000.80 1001.33 1001.86 1002.37 1002.84 1003.26 1003.64 1003.97 1004.28 1004.58 1004.89 1005.22 1005.59 1006.00 1006.46 1006.97 1007.51 1008.07 1008.63 1009.18 1009.70 1010.18 1010.59 1010.95 1011.25 1011.49 1011.68 1011.83 1011.95 1012.05 1012.12 1012.18 1012.20
999.55 999.49 999.59 999.84 1000.20 1000.66 1001.17 1001.69 1002.21 1002.70 1003.16 1003.57 1003.94 1004.29 1004.61 1004.94 1005.27 1005.64 1006.04 1006.48 1006.96 1007.47 1008.01 1008.55 1009.09 1009.61 1010.09 1010.51 1010.88 1011.19 1011.43 1011.63 1011.77 1011.88 1011.95 1012.00 1012.03 1012.04
999.82 999.73 999.80 1000.01 1000.33 1000.74 1001.22 1001.73 1002.24 1002.74 1003.22 1003.67 1004.08 1004.46 1004.83 1005.18 1005.53 1005.90 1006.29 1006.71 1007.16 1007.63 1008.13 1008.64 1009.14 1009.63 1010.09 1010.50 1010.86 1011.15 1011.39 1011.57 1011.70 1011.79 1011.85 1011.89 1011.90 1011.90
1000.31 1000.22 1000.27 1000.43 1000.71 1001.07 1001.50 1001.96 1002.45 1002.95 1003.44 1003.90 1004.35 1004.77 1005.17 1005.56 1005.93 1006.30 1006.69 1007.08 1007.50 1007.93 1008.38 1008.84 1009.30 1009.74 1010.15 1010.53 1010.85 1011.12 1011.34 1011.50 1011.62 1011.70 1011.74 1011.76 1011.77 1011.76
1001.01 1000.93 1000.96 1001.09 1001.31 1001.61 1001.97 1002.39 1002.83 1003.30 1003.78 1004.26 1004.72 1005.16 1005.59 1006.00 1006.39 1006.76 1007.14 1007.51 1007.90 1008.28 1008.68 1009.08 1009.48 1009.87 1010.23 1010.56 1010.84 1011.08 1011.27 1011.41 1011.51 1011.57 1011.61 1011.62 1011.62 1011.60
1001.85 1001.79 1001.81 1001.91 1002.08 1002.31 1002.61 1002.96 1003.35 1003.78 1004.23 1004.69 1005.15 1005.60 1006.03 1006.45 1006.84 1007.22 1007.58 1007.93 1008.27 1008.61 1008.96 1009.31 1009.65 1009.98 1010.28 1010.56 1010.80 1011.00 1011.16 1011.28 1011.36 1011.42 1011.44 1011.45 1011.44 1011.42
1002.72 1002.69 1002.71 1002.78 1002.91 1003.09 1003.32 1003.60 1003.94 1004.31 1004.72 1005.15 1005.59 1006.03 1006.46 1006.86 1007.24 1007.60 1007.94 1008.26 1008.57 1008.87 1009.17 1009.46 1009.75 1010.03 1010.29 1010.52 1010.73 1010.90 1011.03 1011.13 1011.20 1011.24 1011.26 1011.26 1011.25 1011.22
1003.48 1003.48 1003.51 1003.56 1003.65 1003.79 1003.97 1004.20 1004.48 1004.81 1005.18 1005.57 1005.98 1006.40 1006.80 1007.19 1007.55 1007.88 1008.19 1008.48 1008.75 1009.01 1009.27 1009.52 1009.77 1010.01 1010.23 1010.43 1010.61 1010.75 1010.87 1010.96 1011.02 1011.06 1011.08 1011.08 1011.06 1011.01
1003.98 1004.00 1004.04 1004.08 1004.15 1004.26 1004.41 1004.60 1004.85 1005.15 1005.49 1005.86 1006.25 1006.64 1007.02 1007.38 1007.71 1008.02 1008.30 1008.56 1008.80 1009.03 1009.26 1009.48 1009.70 1009.91 1010.11 1010.29 1010.45 1010.59 1010.70 1010.79 1010.85 1010.89 1010.91 1010.90 1010.87 1010.82
Thickness
5738 5736 5735 5734 5733 5731 5729 5727 5721 5717 5719 5723 5724 5727 5726 5725 5725 5724 5724 5723 5723 5722 5720 5719 5717 5716 5714 5712 5711 5710 5709 5708 5707 5707 5706 5706 5705 5704
5736 5735 5733 5732 5731 5729 5728 5726 5723 5720 5717 5721 5721 5722 5722 5722 5721 5721 5720 5719 5718 5717 5716 5715 5713 5712 5710 5709 5707 5706 5705 5704 5703 5702 5701 5700 5699 5698
5735 5733 5731 5730 5728 5727 5725 5723 5721 5719 5716 5718 5718 5718 5717 5717 5717 5716 5716 5715 5714 5713 5712 5711 5709 5708 5707 5705 5703 5702 5700 5699 5698 5697 5696 5695 5694 5693
5732 5730 5729 5728 5726 5724 5722 5721 5719 5718 5716 5714 5714 5714 5713 5713 5712 5712 5711 5711 5710 5709 5708 5707 5705 5704 5702 5701 5699 5697 5696 5694 5693 5692 5691 5690 5689 5688
5730 5728 5726 5724 5722 5721 5719 5718 5717 5716 5714 5712 5711 5710 5709 5709 5708 5707 5706 5706 5705 5704 5703 5702 5701 5699 5698 5696 5694 5693 5691 5690 5689 5686 5685 5684 5683 5682
5728 5726 5724 5722 5720 5718 5717 5715 5714 5712 5710 5708 5707 5706 5705 5705 5703 5702 5701 5700 5700 5699 5698 5697 5695 5694 5693 5691 5690 5688 5687 5685 5684 5682 5680 5678 5677 5676
5723 5722 5721 5720 5718 5716 5715 5712 5710 5708 5706 5704 5703 5702 5701 5700 5699 5699 5696 5695 5694 5694 5692 5691 5690 5689 5687 5686 5685 5684 5682 5681 5679 5677 5676 5674 5672 5671
5718 5717 5716 5715 5714 5712 5711 5710 5709 5705 5703 5701 5700 5699 5699 5698 5696 5694 5691 5689 5688 5689 5686 5686 5685 5684 5683 5682 5681 5679 5678 5676 5675 5673 5671 5670 5668 5666
5713 5711 5711 5711 5709 5708 5706 5705 5704 5703 5702 5700 5698 5697 5697 5696 5693 5690 5688 5687 5686 5685 5681 5681 5680 5679 5679 5678 5677 5675 5673 5672 5670 5668 5667 5665 5663 5662
5707 5706 5704 5704 5703 5701 5700 5698 5698 5698 5698 5696 5696 5695 5695 5693 5691 5689 5687 5683 5681 5679 5677 5675 5675 5675 5675 5674 5673 5671 5669 5667 5666 5664 5662 5661 5659 5657
5701 5700 5699 5698 5696 5694 5692 5691 5691 5691 5692 5691 5690 5689 5689 5687 5685 5682 5679 5676 5675 5674 5672 5671 5670 5668 5668 5668 5667 5666 5664 5662 5660 5659 5657 5656 5654 5651
5694 5693 5691 5691 5689 5687 5685 5684 5683 5684 5684 5683 5682 5682 5681 5681 5679 5677 5676 5672 5670 5669 5669 5666 5664 5661 5661 5663 5661 5660 5658 5656 5655 5653 5652 5650 5647 5645
5687 5686 5684 5682 5681 5679 5678 5678 5678 5677 5675 5674 5674 5674 5674 5673 5673 5672 5670 5669 5666 5665 5665 5661 5659 5656 5656 5656 5655 5654 5652 5650 5648 5646 5645 5643 5641 5639
5680 5679 5677 5674 5673 5671 5670 5670 5669 5667 5666 5665 5665 5665 5665 5666 5666 5665 5664 5663 5662 5662 5660 5657 5656 5654 5651 5649 5648 5647 5645 5643 5642 5640 5638 5636 5633 5632
5672 5670 5669 5667 5664 5663 5662 5661 5660 5658 5658 5657 5658 5659 5658 5658 5657 5656 5656 5655 5654 5653 5652 5651 5651 5649 5647 5645 5644 5641 5638 5636 5634 5633 5631 5629 5627 5625
5662 5661 5659 5657 5655 5654 5653 5652 5651 5650 5649 5650 5650 5649 5649 5648 5648 5648 5647 5646 5645 5645 5644 5643 5642 5641 5640 5639 5637 5635 5633 5631 5629 5626 5624 5622 5620 5618
5652 5650 5649 5647 5646 5645 5645 5644 5642 5641 5640 5640 5640 5639 5639 5639 5638 5638 5637 5637 5636 5636 5635 5634 5632 5631 5631 5629 5628 5628 5626 5624 5622 5619 5616 5615 5614 5613
5640 5640 5640 5639 5637 5636 5635 5634 5633 5632 5632 5631 5631 5630 5630 5629 5629 5628 5627 5627 5627 5627 5626 5625 5623 5622 5620 5619 5620 5620 5618 5616 5614 5611 5609 5607 5608 5607
5631 5631 5630 5629 5628 5627 5626 5625 5623 5623 5622 5621 5621 5621 5620 5620 5619 5619 5618 5617 5617 5617 5616 5615 5614 5614 5612 5612 5612 5611 5610 5608 5605 5603 5602 5601 5601 5601
5624 5623 5621 5620 5618 5617 5617 5616 5615 5614 5613 5612 5612 5611 5611 5610 5610 5609 5609 5608 5608 5607 5606 5606 5605 5604 5604 5604 5602 5601 5600 5599 5597 5596 5595 5592 5591 5590
5617 5615 5614 5612 5610 5609 5608 5608 5607 5606 5605 5603 5603 5602 5602 5601 5601 5601 5601 5599 5598 5598 5598 5598 5597 5595 5593 5592 5591 5592 5591 5590 5590 5589 5587 5585 5583 5582
5609 5608 5606 5604 5603 5602 5601 5600 5599 5598 5597 5595 5594 5594 5593 5593 5593 5593 5592 5591 5590 5590 5590 5588 5586 5585 5584 5584 5584 5584 5582 5581 5579 5579 5579 5579 5577 5576
5601 5599 5599 5597 5596 5594 5593 5591 5591 5590 5589 5588 5587 5585 5585 5584 5584 5584 5583 5582 5581 5580 5579 5578 5577 5576 5576 5576 5575 5574 5573 5571 5570 5569 5569 5568 5568 5568